AAL1015 KMIA-KPHL

Flight info

Callsign AAL1015
Flight time 2h 51m
Altitude 37000
Route FOLZZ3 ALYRA PELCN Y309 FLRDA IDOLS SKARP Q101 KALDA ZJAAY JIIMS4
Aircraft A320/M-SDE3FGHIRWY/LB1

Departure

Time 2026-05-06 01:40
Airport Miami International Airport (KMIA)

Arrival

Time 2026-05-06 04:31
Airport Philadelphia International Airport (KPHL)
Time Latitude Longitude Altitude Speed Heading
2026-05-06 00:37 25.79733 -80.28352 20 ft 0 kts 357°
2026-05-06 01:24 25.79722 -80.28352 22 ft 4 kts 358°
2026-05-06 01:24 25.79696 -80.28350 22 ft 4 kts 343°
2026-05-06 01:24 25.79677 -80.28336 24 ft 4 kts 290°
2026-05-06 01:25 25.79674 -80.28323 20 ft 0 kts 267°
2026-05-06 01:31 25.79674 -80.28327 20 ft 2 kts 267°
2026-05-06 01:31 25.79673 -80.28351 21 ft 5 kts 267°
2026-05-06 01:31 25.79671 -80.28403 21 ft 8 kts 268°
2026-05-06 01:31 25.79667 -80.28472 21 ft 10 kts 266°
2026-05-06 01:32 25.79656 -80.28554 22 ft 12 kts 259°
2026-05-06 01:32 25.79649 -80.28650 23 ft 13 kts 266°
2026-05-06 01:32 25.79640 -80.28756 23 ft 14 kts 268°
2026-05-06 01:32 25.79712 -80.28813 24 ft 15 kts 358°
2026-05-06 01:33 25.79825 -80.28819 24 ft 17 kts 356°
2026-05-06 01:33 25.79949 -80.28824 28 ft 19 kts 358°
2026-05-06 01:33 25.79967 -80.28825 26 ft 3 kts 356°
2026-05-06 01:33 25.80007 -80.28857 27 ft 11 kts 297°
2026-05-06 01:34 25.80007 -80.28960 27 ft 15 kts 266°
2026-05-06 01:34 25.80003 -80.29083 25 ft 17 kts 269°
2026-05-06 01:34 25.80000 -80.29217 26 ft 18 kts 269°
2026-05-06 01:34 25.79993 -80.29376 21 ft 23 kts 267°
2026-05-06 01:35 25.79986 -80.29571 17 ft 27 kts 267°
2026-05-06 01:35 25.79975 -80.29785 17 ft 29 kts 268°
2026-05-06 01:35 25.79976 -80.29944 15 ft 4 kts 281°
2026-05-06 01:35 25.79984 -80.29990 15 ft 7 kts 282°
2026-05-06 01:36 25.79986 -80.30000 15 ft 0 kts 283°
2026-05-06 01:38 25.79991 -80.30021 16 ft 7 kts 284°
2026-05-06 01:38 25.80013 -80.30094 19 ft 11 kts 296°
2026-05-06 01:38 25.80068 -80.30107 18 ft 11 kts 58°
2026-05-06 01:39 25.80074 -80.30070 17 ft 0 kts 87°
2026-05-06 01:39 25.80078 -80.29989 16 ft 43 kts 86°
2026-05-06 01:39 25.80106 -80.29308 23 ft 128 kts 87°
2026-05-06 01:40 25.80149 -80.28114 316 ft 169 kts 85°
2026-05-06 01:40 25.80202 -80.26775 1213 ft 180 kts 85°
2026-05-06 01:40 25.80031 -80.25303 1944 ft 207 kts 110°
2026-05-06 01:40 25.79421 -80.23762 2430 ft 231 kts 114°
2026-05-06 01:41 25.78681 -80.22079 3006 ft 251 kts 115°
2026-05-06 01:41 25.77878 -80.20310 3771 ft 263 kts 116°
2026-05-06 01:41 25.77343 -80.18346 4551 ft 274 kts 94°
2026-05-06 01:41 25.77641 -80.16252 5390 ft 280 kts 65°
2026-05-06 01:42 25.78786 -80.14518 6205 ft 282 kts 36°
2026-05-06 01:42 25.80369 -80.13586 6985 ft 282 kts 17°
2026-05-06 01:42 25.82232 -80.12870 7869 ft 285 kts 16°
2026-05-06 01:42 25.84129 -80.12149 8709 ft 289 kts 15°
2026-05-06 01:43 25.86047 -80.11420 9487 ft 294 kts 15°
2026-05-06 01:43 25.88003 -80.10673 10227 ft 301 kts 15°
2026-05-06 01:43 25.90058 -80.09887 10488 ft 324 kts 15°
2026-05-06 01:43 25.92260 -80.09042 10678 ft 346 kts 16°
2026-05-06 01:44 25.94598 -80.08138 10983 ft 362 kts 16°
2026-05-06 01:44 25.96998 -80.07201 11558 ft 367 kts 17°
2026-05-06 01:44 25.99420 -80.06254 12197 ft 370 kts 17°
2026-05-06 01:44 26.01857 -80.05301 12840 ft 373 kts 17°
2026-05-06 01:45 26.04326 -80.04340 13474 ft 376 kts 17°
2026-05-06 01:45 26.06811 -80.03375 14080 ft 379 kts 17°
2026-05-06 01:45 26.09276 -80.02417 14625 ft 382 kts 17°
2026-05-06 01:45 26.11795 -80.01438 15189 ft 385 kts 16°
2026-05-06 01:46 26.14335 -80.00450 15732 ft 388 kts 16°
2026-05-06 01:46 26.16906 -79.99452 16287 ft 392 kts 16°
2026-05-06 01:46 26.19488 -79.98451 16846 ft 395 kts 16°
2026-05-06 01:46 26.22098 -79.97438 17423 ft 398 kts 16°
2026-05-06 01:47 26.24722 -79.96416 18020 ft 401 kts 16°
2026-05-06 01:47 26.27370 -79.95384 18571 ft 404 kts 16°
2026-05-06 01:47 26.30033 -79.94345 19086 ft 407 kts 15°
2026-05-06 01:47 26.32716 -79.93295 19608 ft 410 kts 15°
2026-05-06 01:48 26.35419 -79.92239 20109 ft 413 kts 15°
2026-05-06 01:48 26.38138 -79.91177 20604 ft 415 kts 15°
2026-05-06 01:48 26.40875 -79.90108 21084 ft 418 kts 14°
2026-05-06 01:48 26.43628 -79.89032 21553 ft 420 kts 14°
2026-05-06 01:49 26.46396 -79.87950 22008 ft 423 kts 14°
2026-05-06 01:49 26.49179 -79.86863 22442 ft 425 kts 14°
2026-05-06 01:49 26.51977 -79.85770 22875 ft 427 kts 14°
2026-05-06 01:49 26.54791 -79.84669 23297 ft 429 kts 14°
2026-05-06 01:50 26.57618 -79.83561 23682 ft 432 kts 14°
2026-05-06 01:50 26.60462 -79.82445 24020 ft 433 kts 14°
2026-05-06 01:50 26.63311 -79.81327 24362 ft 434 kts 13°
2026-05-06 01:50 26.66168 -79.80207 24715 ft 435 kts 13°
2026-05-06 01:51 26.69026 -79.79086 25066 ft 436 kts 13°
2026-05-06 01:51 26.71890 -79.77960 25406 ft 438 kts 13°
2026-05-06 01:51 26.74770 -79.76827 25754 ft 438 kts 13°
2026-05-06 01:51 26.77649 -79.75694 26102 ft 439 kts 13°
2026-05-06 01:52 26.80538 -79.74558 26466 ft 440 kts 13°
2026-05-06 01:52 26.83440 -79.73417 26831 ft 441 kts 13°
2026-05-06 01:52 26.86336 -79.72277 27192 ft 442 kts 13°
2026-05-06 01:52 26.89207 -79.71145 27538 ft 443 kts 13°
2026-05-06 01:53 26.92118 -79.69994 27880 ft 444 kts 13°
2026-05-06 01:53 26.95035 -79.68842 28222 ft 445 kts 13°
2026-05-06 01:53 26.97952 -79.67689 28556 ft 446 kts 13°
2026-05-06 01:53 27.00869 -79.66534 29047 ft 443 kts 13°
2026-05-06 01:54 27.03774 -79.65383 29556 ft 440 kts 13°
2026-05-06 01:54 27.06649 -79.64245 30089 ft 437 kts 13°
2026-05-06 01:54 27.09511 -79.63111 30572 ft 434 kts 12°
2026-05-06 01:54 27.12342 -79.61987 31062 ft 430 kts 12°
2026-05-06 01:55 27.15153 -79.60869 31542 ft 427 kts 12°
2026-05-06 01:55 27.17945 -79.59761 32008 ft 424 kts 11°
2026-05-06 01:55 27.20723 -79.58657 32469 ft 422 kts 11°
2026-05-06 01:55 27.23450 -79.57572 32920 ft 420 kts 11°
2026-05-06 01:56 27.26200 -79.56482 33380 ft 418 kts 11°
2026-05-06 01:56 27.28934 -79.55400 33840 ft 415 kts 11°
2026-05-06 01:56 27.31651 -79.54323 34281 ft 413 kts 10°
2026-05-06 01:56 27.34361 -79.53247 34680 ft 412 kts 10°
2026-05-06 01:57 27.37053 -79.52177 35055 ft 410 kts 10°
2026-05-06 01:57 27.39737 -79.51109 35426 ft 409 kts 10°
2026-05-06 01:57 27.42421 -79.50041 35779 ft 407 kts 10°
2026-05-06 01:57 27.45090 -79.48981 36131 ft 406 kts
2026-05-06 01:58 27.47745 -79.47927 36477 ft 405 kts
2026-05-06 01:58 27.50398 -79.46870 36812 ft 403 kts
2026-05-06 01:58 27.53042 -79.45813 37045 ft 403 kts
2026-05-06 01:58 27.55692 -79.44756 37090 ft 405 kts
2026-05-06 01:59 27.61019 -79.42632 37100 ft 406 kts
2026-05-06 01:59 27.66341 -79.40502 37113 ft 406 kts
2026-05-06 02:00 27.71666 -79.38368 37099 ft 406 kts
2026-05-06 02:00 27.76986 -79.36240 37094 ft 406 kts
2026-05-06 02:01 27.82286 -79.34121 37099 ft 406 kts
2026-05-06 02:01 27.87617 -79.31982 37101 ft 407 kts
2026-05-06 02:02 27.92950 -79.29831 37107 ft 407 kts
2026-05-06 02:02 27.98284 -79.27682 37132 ft 407 kts
2026-05-06 02:03 28.03617 -79.25527 37120 ft 407 kts
2026-05-06 02:03 28.08957 -79.23375 37120 ft 407 kts
2026-05-06 02:04 28.14293 -79.21224 37116 ft 407 kts
2026-05-06 02:04 28.18731 -79.19434 37118 ft 407 kts
2026-05-06 02:05 28.24067 -79.17284 37134 ft 407 kts
2026-05-06 02:05 28.29406 -79.15120 37133 ft 407 kts
2026-05-06 02:06 28.34777 -79.12931 37236 ft 414 kts
2026-05-06 02:06 28.37496 -79.11843 37441 ft 412 kts
2026-05-06 02:06 28.40221 -79.11023 37535 ft 396 kts 359°
2026-05-06 02:07 28.42899 -79.10424 36472 ft 404 kts
2026-05-06 02:07 28.45440 -79.09276 37030 ft 380 kts 14°
2026-05-06 02:07 28.47769 -79.07912 36791 ft 378 kts 16°
2026-05-06 02:07 28.50121 -79.06350 35592 ft 400 kts 20°
2026-05-06 02:08 28.52436 -79.04731 35585 ft 389 kts 24°
2026-05-06 02:08 28.54585 -79.02799 35221 ft 390 kts 29°
2026-05-06 02:08 28.56504 -79.00756 35703 ft 373 kts 36°
2026-05-06 02:08 28.58125 -78.98525 36008 ft 355 kts 37°
2026-05-06 02:09 28.59567 -78.96342 36292 ft 335 kts 36°
2026-05-06 02:09 28.60974 -78.94359 36240 ft 315 kts 33°
2026-05-06 02:09 28.62447 -78.92391 35276 ft 337 kts 36°
2026-05-06 02:09 28.63994 -78.90294 34683 ft 362 kts 38°
2026-05-06 02:10 28.65696 -78.88006 33744 ft 400 kts 40°
2026-05-06 02:10 28.67314 -78.85145 32462 ft 457 kts 52°
2026-05-06 02:10 28.68900 -78.81804 31305 ft 494 kts 52°
2026-05-06 02:10 28.70913 -78.78700 31230 ft 484 kts 39°
2026-05-06 02:11 28.73387 -78.76095 30899 ft 485 kts 25°
2026-05-06 02:11 28.76110 -78.73750 30564 ft 496 kts 35°
2026-05-06 02:11 28.78459 -78.70919 30084 ft 491 kts 47°
2026-05-06 02:11 28.80108 -78.67465 28511 ft 503 kts 56°
2026-05-06 02:12 28.81695 -78.63902 27364 ft 502 kts 52°
2026-05-06 02:12 28.83415 -78.60547 26076 ft 500 kts 55°
2026-05-06 02:12 28.85010 -78.56892 24249 ft 517 kts 56°
2026-05-06 02:12 28.86197 -78.53050 22926 ft 520 kts 67°
2026-05-06 02:13 28.87711 -78.49388 21648 ft 505 kts 49°
2026-05-06 02:13 28.90163 -78.46603 20010 ft 496 kts 31°
2026-05-06 02:13 28.93077 -78.44447 18523 ft 505 kts 28°
2026-05-06 02:13 28.96039 -78.42613 18657 ft 452 kts 14°
2026-05-06 02:14 28.99067 -78.42385 18562 ft 445 kts 346°
2026-05-06 02:14 29.01876 -78.43832 17619 ft 444 kts 320°
2026-05-06 02:14 29.03775 -78.46517 17084 ft 425 kts 297°
2026-05-06 02:14 29.04665 -78.49607 16888 ft 404 kts 278°
2026-05-06 02:15 29.04727 -78.52843 15928 ft 407 kts 271°
2026-05-06 02:15 29.04658 -78.55997 15915 ft 386 kts 264°
2026-05-06 02:15 29.04354 -78.59007 15286 ft 382 kts 259°
2026-05-06 02:15 29.03798 -78.61952 14950 ft 373 kts 253°
2026-05-06 02:16 29.02987 -78.64757 14191 ft 372 kts 255°
2026-05-06 02:16 29.02373 -78.67548 14161 ft 351 kts 258°
2026-05-06 02:16 29.01748 -78.70174 13877 ft 337 kts 246°
2026-05-06 02:16 29.00917 -78.72647 14207 ft 316 kts 249°
2026-05-06 02:17 29.00155 -78.74863 14748 ft 283 kts 248°
2026-05-06 02:17 28.99595 -78.76958 15095 ft 275 kts 253°
2026-05-06 02:17 28.99136 -78.79079 15218 ft 276 kts 263°
2026-05-06 02:17 28.98516 -78.81244 15107 ft 303 kts 255°
2026-05-06 02:18 28.97889 -78.83537 15720 ft 299 kts 262°
2026-05-06 02:18 28.97549 -78.85880 16279 ft 307 kts 259°
2026-05-06 02:18 28.97186 -78.88386 16216 ft 333 kts 266°
2026-05-06 02:18 28.96794 -78.91036 16451 ft 346 kts 244°
2026-05-06 02:19 28.95956 -78.93660 16643 ft 358 kts 250°
2026-05-06 02:19 28.95201 -78.96361 16930 ft 364 kts 261°
2026-05-06 02:19 28.94891 -78.99234 17561 ft 365 kts 264°
2026-05-06 02:19 28.94675 -79.02120 18272 ft 364 kts 268°
2026-05-06 02:20 28.94447 -79.07926 19282 ft 373 kts 272°
2026-05-06 02:20 28.94570 -79.10933 19541 ft 384 kts 278°
2026-05-06 02:20 28.95157 -79.13934 19808 ft 391 kts 279°
2026-05-06 02:21 28.95344 -79.17104 19887 ft 407 kts 275°
2026-05-06 02:21 28.95438 -79.20345 20340 ft 410 kts 274°
2026-05-06 02:21 28.95521 -79.23622 20530 ft 419 kts 274°
2026-05-06 02:21 28.95696 -79.26987 20571 ft 428 kts 275°
2026-05-06 02:22 28.95489 -79.30289 20565 ft 408 kts 263°
2026-05-06 02:22 28.95007 -79.33392 20652 ft 385 kts 261°
2026-05-06 02:22 28.94588 -79.36391 20817 ft 382 kts 266°
2026-05-06 02:22 28.94765 -79.39367 20809 ft 375 kts 288°
2026-05-06 02:23 28.96001 -79.41949 20816 ft 375 kts 310°
2026-05-06 02:23 28.98002 -79.43955 20925 ft 392 kts 325°
2026-05-06 02:23 29.00465 -79.45360 21049 ft 409 kts 339°
2026-05-06 02:23 29.03321 -79.45927 21171 ft 427 kts 356°
2026-05-06 02:24 29.06300 -79.45324 21277 ft 447 kts 15°
2026-05-06 02:24 29.09051 -79.43532 21404 ft 465 kts 33°
2026-05-06 02:24 29.11580 -79.41158 21507 ft 475 kts 36°
2026-05-06 02:24 29.14091 -79.38622 21657 ft 483 kts 38°
2026-05-06 02:25 29.16594 -79.36015 21801 ft 490 kts 38°
2026-05-06 02:25 29.19125 -79.33373 22075 ft 492 kts 38°
2026-05-06 02:25 29.21644 -79.30788 22346 ft 494 kts 37°
2026-05-06 02:25 29.24236 -79.28191 22609 ft 495 kts 36°
2026-05-06 02:26 29.26848 -79.25620 22908 ft 496 kts 36°
2026-05-06 02:26 29.29476 -79.23052 23250 ft 495 kts 36°
2026-05-06 02:26 29.32097 -79.20489 23614 ft 495 kts 35°
2026-05-06 02:26 29.34714 -79.17918 23942 ft 494 kts 36°
2026-05-06 02:27 29.37315 -79.15351 24284 ft 493 kts 36°
2026-05-06 02:27 29.39904 -79.12788 24667 ft 491 kts 35°
2026-05-06 02:27 29.42482 -79.10233 25050 ft 489 kts 35°
2026-05-06 02:27 29.45050 -79.07681 25453 ft 487 kts 35°
2026-05-06 02:28 29.47604 -79.05139 25862 ft 485 kts 36°
2026-05-06 02:28 29.50157 -79.02600 26275 ft 484 kts 36°
2026-05-06 02:28 29.52701 -79.00072 26707 ft 482 kts 35°
2026-05-06 02:28 29.55234 -78.97555 27160 ft 481 kts 35°
2026-05-06 02:29 29.57314 -78.95488 27546 ft 479 kts 35°
2026-05-06 02:29 29.59828 -78.92986 28027 ft 477 kts 35°
2026-05-06 02:29 29.62327 -78.90496 28523 ft 475 kts 35°
2026-05-06 02:29 29.64815 -78.88014 29049 ft 473 kts 35°
2026-05-06 02:30 29.67301 -78.85532 29568 ft 470 kts 35°
2026-05-06 02:30 29.69764 -78.83071 30101 ft 468 kts 35°
2026-05-06 02:30 29.72220 -78.80614 30565 ft 466 kts 34°
2026-05-06 02:30 29.74627 -78.78205 31009 ft 464 kts 34°
2026-05-06 02:31 29.77008 -78.75820 31454 ft 462 kts 34°
2026-05-06 02:31 29.79426 -78.73398 31915 ft 459 kts 33°
2026-05-06 02:31 29.81831 -78.70986 32382 ft 457 kts 33°
2026-05-06 02:31 29.84209 -78.68600 32861 ft 455 kts 32°
2026-05-06 02:32 29.86589 -78.66212 33336 ft 453 kts 32°
2026-05-06 02:32 29.88959 -78.63831 33821 ft 451 kts 32°
2026-05-06 02:32 29.91320 -78.61459 34313 ft 448 kts 32°
2026-05-06 02:32 29.93662 -78.59104 34737 ft 446 kts 31°
2026-05-06 02:33 29.96000 -78.56756 35133 ft 445 kts 31°
2026-05-06 02:33 29.97574 -78.55175 35396 ft 445 kts 31°
2026-05-06 02:34 30.05308 -78.47387 36648 ft 443 kts 30°
2026-05-06 02:34 30.07626 -78.45048 36992 ft 443 kts 30°
2026-05-06 02:34 30.09952 -78.42707 37114 ft 442 kts 29°
2026-05-06 02:34 30.12418 -78.40689 37121 ft 426 kts 18°
2026-05-06 02:35 30.15063 -78.39282 37124 ft 412 kts
2026-05-06 02:35 30.17796 -78.38460 37123 ft 401 kts
2026-05-06 02:35 30.20544 -78.38035 37125 ft 398 kts 359°
2026-05-06 02:36 30.26045 -78.37224 37122 ft 398 kts 359°
2026-05-06 02:36 30.31552 -78.36413 37122 ft 398 kts 359°
2026-05-06 02:37 30.37053 -78.35587 37122 ft 398 kts 360°
2026-05-06 02:37 30.42551 -78.34751 37124 ft 400 kts 360°
2026-05-06 02:38 30.48034 -78.33575 37143 ft 404 kts
2026-05-06 02:38 30.53541 -78.32188 37138 ft 405 kts
2026-05-06 02:39 30.59013 -78.30846 37134 ft 404 kts
2026-05-06 02:39 30.64528 -78.29552 37135 ft 404 kts
2026-05-06 02:40 30.70042 -78.28275 37138 ft 404 kts
2026-05-06 02:40 30.75558 -78.26995 37158 ft 405 kts
2026-05-06 02:41 30.81083 -78.25694 37151 ft 405 kts
2026-05-06 02:41 30.86610 -78.24397 37145 ft 405 kts
2026-05-06 02:42 30.92141 -78.23099 37142 ft 405 kts
2026-05-06 02:42 30.97676 -78.21819 37143 ft 405 kts
2026-05-06 02:43 31.03182 -78.20606 37157 ft 405 kts
2026-05-06 02:43 31.08763 -78.19384 37144 ft 406 kts
2026-05-06 02:44 31.14278 -78.18155 37141 ft 406 kts
2026-05-06 02:44 31.19831 -78.16916 37146 ft 406 kts
2026-05-06 02:45 31.25387 -78.15678 37170 ft 406 kts
2026-05-06 02:45 31.30951 -78.14427 37156 ft 407 kts
2026-05-06 02:46 31.36519 -78.13182 37149 ft 407 kts
2026-05-06 02:46 31.42054 -78.11948 37145 ft 407 kts
2026-05-06 02:47 31.47623 -78.10666 37143 ft 408 kts
2026-05-06 02:47 31.53198 -78.09297 37172 ft 409 kts
2026-05-06 02:48 31.58776 -78.07928 37154 ft 410 kts
2026-05-06 02:48 31.64362 -78.06573 37148 ft 410 kts
2026-05-06 02:49 31.69950 -78.05225 37144 ft 410 kts
2026-05-06 02:49 31.75549 -78.03867 37143 ft 411 kts
2026-05-06 02:50 31.81149 -78.02506 37160 ft 411 kts
2026-05-06 02:50 31.86753 -78.01136 37155 ft 411 kts
2026-05-06 02:51 31.92355 -77.99771 37151 ft 411 kts
2026-05-06 02:51 31.97964 -77.98408 37148 ft 411 kts
2026-05-06 02:52 32.03538 -77.97057 37145 ft 412 kts
2026-05-06 02:52 32.09154 -77.95677 37177 ft 412 kts
2026-05-06 02:53 32.14767 -77.94299 37166 ft 412 kts
2026-05-06 02:53 32.20380 -77.92928 37162 ft 412 kts
2026-05-06 02:54 32.25991 -77.91555 37155 ft 411 kts
2026-05-06 02:54 32.31596 -77.90174 37181 ft 411 kts
2026-05-06 02:55 32.37208 -77.88792 37168 ft 411 kts
2026-05-06 02:55 32.42802 -77.87416 37164 ft 411 kts
2026-05-06 02:56 32.48403 -77.86043 37156 ft 411 kts
2026-05-06 02:56 32.53997 -77.84665 37156 ft 411 kts
2026-05-06 02:57 32.59594 -77.83285 37163 ft 411 kts
2026-05-06 02:57 32.65188 -77.81895 37159 ft 411 kts
2026-05-06 02:58 32.70746 -77.80508 37146 ft 411 kts
2026-05-06 02:58 32.76337 -77.79113 37144 ft 411 kts
2026-05-06 02:59 32.81930 -77.77724 37144 ft 411 kts
2026-05-06 02:59 32.87525 -77.76334 37144 ft 411 kts
2026-05-06 03:00 32.93121 -77.74940 37143 ft 411 kts
2026-05-06 03:00 32.98723 -77.73547 37146 ft 411 kts
2026-05-06 03:01 33.04320 -77.72152 37147 ft 411 kts
2026-05-06 03:01 33.09922 -77.70751 37168 ft 411 kts
2026-05-06 03:02 33.15512 -77.69345 37159 ft 411 kts
2026-05-06 03:02 33.21074 -77.67952 37153 ft 411 kts
2026-05-06 03:03 33.26671 -77.66550 37149 ft 411 kts
2026-05-06 03:03 33.32265 -77.65141 37148 ft 411 kts
2026-05-06 03:04 33.37862 -77.63733 37161 ft 411 kts
2026-05-06 03:04 33.43469 -77.62316 37154 ft 411 kts
2026-05-06 03:05 33.49066 -77.60905 37149 ft 411 kts
2026-05-06 03:05 33.54666 -77.59488 37146 ft 411 kts
2026-05-06 03:06 33.60271 -77.58107 37165 ft 410 kts
2026-05-06 03:06 33.65841 -77.57023 37148 ft 407 kts
2026-05-06 03:07 33.71440 -77.56023 37141 ft 407 kts
2026-05-06 03:07 33.77048 -77.54980 37140 ft 408 kts
2026-05-06 03:08 33.82662 -77.53896 37137 ft 408 kts
2026-05-06 03:08 33.88272 -77.52803 37155 ft 408 kts
2026-05-06 03:09 33.93839 -77.51719 37151 ft 408 kts
2026-05-06 03:09 33.99445 -77.50635 37141 ft 408 kts
2026-05-06 03:10 34.05057 -77.49549 37137 ft 408 kts
2026-05-06 03:10 34.10669 -77.48456 37157 ft 408 kts
2026-05-06 03:11 34.16265 -77.47363 37153 ft 408 kts
2026-05-06 03:11 34.21868 -77.46267 37144 ft 408 kts
2026-05-06 03:12 34.27472 -77.45174 37144 ft 408 kts
2026-05-06 03:12 34.32131 -77.44269 37142 ft 408 kts
2026-05-06 03:13 34.38657 -77.43003 37165 ft 408 kts
2026-05-06 03:13 34.43315 -77.42090 37153 ft 408 kts
2026-05-06 03:14 34.48908 -77.40694 37140 ft 418 kts 11°
2026-05-06 03:14 34.54250 -77.37589 37139 ft 428 kts 18°
2026-05-06 03:15 34.59553 -77.34305 37156 ft 428 kts 17°
2026-05-06 03:15 34.64866 -77.31025 37148 ft 428 kts 17°
2026-05-06 03:16 34.70175 -77.27743 37142 ft 428 kts 17°
2026-05-06 03:16 34.75488 -77.24455 37138 ft 428 kts 17°
2026-05-06 03:17 34.80798 -77.21162 37158 ft 428 kts 18°
2026-05-06 03:17 34.86095 -77.17873 37148 ft 426 kts 17°
2026-05-06 03:18 34.91345 -77.14606 37147 ft 426 kts 17°
2026-05-06 03:18 34.96627 -77.11311 37151 ft 426 kts 18°
2026-05-06 03:19 35.01912 -77.08010 37155 ft 427 kts 18°
2026-05-06 03:19 35.07201 -77.04704 37170 ft 427 kts 17°
2026-05-06 03:20 35.15137 -76.99752 37159 ft 427 kts 17°
2026-05-06 03:20 35.20405 -76.96450 37128 ft 427 kts 17°
2026-05-06 03:21 35.25727 -76.93116 37128 ft 427 kts 17°
2026-05-06 03:21 35.31008 -76.89887 37130 ft 426 kts 17°
2026-05-06 03:22 35.36324 -76.86671 37124 ft 426 kts 17°
2026-05-06 03:22 35.41635 -76.83443 37136 ft 426 kts 17°
2026-05-06 03:23 35.46942 -76.80202 37131 ft 425 kts 17°
2026-05-06 03:23 35.52237 -76.76962 37160 ft 425 kts 17°
2026-05-06 03:24 35.57532 -76.73730 37148 ft 425 kts 17°
2026-05-06 03:24 35.62835 -76.70481 37129 ft 425 kts 17°
2026-05-06 03:25 35.68127 -76.67222 37127 ft 425 kts 17°
2026-05-06 03:25 35.73424 -76.63965 37122 ft 425 kts 17°
2026-05-06 03:26 35.78716 -76.60700 37139 ft 425 kts 17°
2026-05-06 03:26 35.84006 -76.57427 37127 ft 426 kts 17°
2026-05-06 03:27 35.89301 -76.54148 37132 ft 426 kts 17°
2026-05-06 03:27 35.94559 -76.50739 37131 ft 428 kts 19°
2026-05-06 03:28 35.99774 -76.47177 37157 ft 429 kts 19°
2026-05-06 03:28 36.04987 -76.43605 37144 ft 428 kts 19°
2026-05-06 03:29 36.10209 -76.40057 37131 ft 428 kts 19°
2026-05-06 03:29 36.15405 -76.36544 37118 ft 428 kts 19°
2026-05-06 03:30 36.20637 -76.33006 37136 ft 428 kts 19°
2026-05-06 03:30 36.25867 -76.29465 37133 ft 429 kts 19°
2026-05-06 03:31 36.31103 -76.25905 37121 ft 429 kts 19°
2026-05-06 03:31 36.36340 -76.22336 37122 ft 429 kts 19°
2026-05-06 03:32 36.41574 -76.18766 37111 ft 429 kts 19°
2026-05-06 03:32 36.46809 -76.15184 37115 ft 430 kts 19°
2026-05-06 03:33 36.52051 -76.11593 37117 ft 430 kts 19°
2026-05-06 03:33 36.57301 -76.08007 37104 ft 430 kts 19°
2026-05-06 03:34 36.62558 -76.04404 37098 ft 431 kts 19°
2026-05-06 03:34 36.67766 -76.00816 37107 ft 431 kts 19°
2026-05-06 03:35 36.73059 -75.97172 37082 ft 432 kts 19°
2026-05-06 03:35 36.78282 -75.93566 37084 ft 432 kts 19°
2026-05-06 03:36 36.83547 -75.89934 37089 ft 432 kts 19°
2026-05-06 03:36 36.88810 -75.86291 37107 ft 433 kts 20°
2026-05-06 03:37 36.94083 -75.82641 37093 ft 433 kts 19°
2026-05-06 03:37 36.99364 -75.78983 37090 ft 434 kts 20°
2026-05-06 03:38 37.04666 -75.75406 37095 ft 428 kts 14°
2026-05-06 03:38 37.07451 -75.74212 37091 ft 417 kts
2026-05-06 03:38 37.10274 -75.73544 37103 ft 413 kts
2026-05-06 03:39 37.15950 -75.72344 37083 ft 414 kts
2026-05-06 03:39 37.21628 -75.71144 37079 ft 414 kts
2026-05-06 03:40 37.27314 -75.69928 37072 ft 415 kts
2026-05-06 03:40 37.33008 -75.68695 37097 ft 415 kts
2026-05-06 03:41 37.38714 -75.67467 37076 ft 416 kts
2026-05-06 03:41 37.44383 -75.66247 37066 ft 416 kts
2026-05-06 03:42 37.50107 -75.65019 37064 ft 417 kts
2026-05-06 03:42 37.55826 -75.63793 37065 ft 417 kts
2026-05-06 03:43 37.61545 -75.62565 37065 ft 417 kts
2026-05-06 03:43 37.67271 -75.61353 37063 ft 415 kts 359°
2026-05-06 03:44 37.72909 -75.61472 37063 ft 404 kts 348°
2026-05-06 03:44 37.78503 -75.62055 37076 ft 404 kts 348°
2026-05-06 03:45 37.84189 -75.61514 37059 ft 423 kts
2026-05-06 03:45 37.86956 -75.60117 37054 ft 436 kts 20°
2026-05-06 03:45 37.89514 -75.58052 37052 ft 444 kts 26°
2026-05-06 03:46 37.94612 -75.53602 37046 ft 445 kts 26°
2026-05-06 03:46 37.99718 -75.49146 37058 ft 445 kts 26°
2026-05-06 03:47 38.04846 -75.44718 37024 ft 443 kts 22°
2026-05-06 03:47 38.10302 -75.41360 37036 ft 435 kts 16°
2026-05-06 03:48 38.15823 -75.38140 37024 ft 437 kts 17°
2026-05-06 03:48 38.21343 -75.34900 37033 ft 437 kts 17°
2026-05-06 03:49 38.26837 -75.31672 37044 ft 438 kts 17°
2026-05-06 03:49 38.32371 -75.28412 37040 ft 439 kts 17°
2026-05-06 03:50 38.37909 -75.25149 37040 ft 439 kts 17°
2026-05-06 03:50 38.43461 -75.21874 37061 ft 439 kts 17°
2026-05-06 03:51 38.49010 -75.18603 37053 ft 440 kts 17°
2026-05-06 03:51 38.54568 -75.15309 37041 ft 440 kts 17°
2026-05-06 03:52 38.60110 -75.11971 37034 ft 441 kts 18°
2026-05-06 03:52 38.65612 -75.08454 37040 ft 442 kts 19°
2026-05-06 03:53 38.71112 -75.04868 36732 ft 443 kts 19°
2026-05-06 03:53 38.73866 -75.03077 36340 ft 444 kts 19°
2026-05-06 03:53 38.76599 -75.01312 35969 ft 446 kts 19°
2026-05-06 03:54 38.79378 -74.99532 35599 ft 449 kts 20°
2026-05-06 03:54 38.82189 -74.97738 35230 ft 452 kts 20°
2026-05-06 03:54 38.85018 -74.95927 34886 ft 455 kts 21°
2026-05-06 03:54 38.87872 -74.94091 34529 ft 459 kts 21°
2026-05-06 03:55 38.90733 -74.92239 34177 ft 462 kts 22°
2026-05-06 03:55 38.93611 -74.90371 33799 ft 465 kts 22°
2026-05-06 03:55 38.96513 -74.88490 33391 ft 467 kts 22°
2026-05-06 03:55 38.99424 -74.86609 32992 ft 469 kts 22°
2026-05-06 03:56 39.02343 -74.84725 32591 ft 470 kts 22°
2026-05-06 03:56 39.05352 -74.83121 32222 ft 467 kts 13°
2026-05-06 03:56 39.08498 -74.82162 31840 ft 463 kts
2026-05-06 03:56 39.11698 -74.81862 31460 ft 459 kts 354°
2026-05-06 03:57 39.14863 -74.82217 31086 ft 455 kts 346°
2026-05-06 03:57 39.16903 -74.82799 30843 ft 453 kts 340°
2026-05-06 03:57 39.19927 -74.83945 30476 ft 454 kts 339°
2026-05-06 03:57 39.22971 -74.85096 30111 ft 456 kts 339°
2026-05-06 03:58 39.26027 -74.86246 29714 ft 458 kts 339°
2026-05-06 03:58 39.30103 -74.87779 29158 ft 460 kts 339°
2026-05-06 03:58 39.32145 -74.88550 28885 ft 461 kts 339°
2026-05-06 03:58 39.35267 -74.89728 28466 ft 462 kts 339°
2026-05-06 03:59 39.38316 -74.90878 28076 ft 463 kts 339°
2026-05-06 03:59 39.41412 -74.92048 27678 ft 464 kts 339°
2026-05-06 03:59 39.44516 -74.93220 27290 ft 465 kts 339°
2026-05-06 03:59 39.47629 -74.94395 26906 ft 466 kts 339°
2026-05-06 04:00 39.50739 -74.95570 26540 ft 465 kts 338°
2026-05-06 04:00 39.53735 -74.97016 26163 ft 455 kts 328°
2026-05-06 04:00 39.56407 -74.99139 25788 ft 447 kts 320°
2026-05-06 04:00 39.58921 -75.01479 25422 ft 442 kts 319°
2026-05-06 04:01 39.61380 -75.03770 25049 ft 427 kts 319°
2026-05-06 04:01 39.63792 -75.05950 24580 ft 420 kts 324°
2026-05-06 04:01 39.66489 -75.07416 24106 ft 423 kts 340°
2026-05-06 04:01 39.69426 -75.07798 23654 ft 429 kts 357°
2026-05-06 04:02 39.72367 -75.07007 23135 ft 436 kts 15°
2026-05-06 04:02 39.75025 -75.05070 22576 ft 442 kts 33°
2026-05-06 04:02 39.77152 -75.02185 22070 ft 443 kts 52°
2026-05-06 04:02 39.78842 -74.98843 21579 ft 440 kts 53°
2026-05-06 04:03 39.80755 -74.95775 21071 ft 435 kts 44°
2026-05-06 04:03 39.82773 -74.92868 20565 ft 433 kts 50°
2026-05-06 04:03 39.84250 -74.89473 20011 ft 432 kts 68°
2026-05-06 04:03 39.84954 -74.85704 19575 ft 425 kts 78°
2026-05-06 04:04 39.85413 -74.81978 19138 ft 420 kts 81°
2026-05-06 04:04 39.86086 -74.78304 18673 ft 416 kts 75°
2026-05-06 04:04 39.86930 -74.74713 18200 ft 413 kts 73°
2026-05-06 04:04 39.87823 -74.71176 17674 ft 409 kts 73°
2026-05-06 04:05 39.88683 -74.67672 17163 ft 404 kts 74°
2026-05-06 04:05 39.89484 -74.64177 16653 ft 400 kts 76°
2026-05-06 04:05 39.90226 -74.60705 16146 ft 396 kts 77°
2026-05-06 04:05 39.90922 -74.57256 15649 ft 392 kts 78°
2026-05-06 04:06 39.91595 -74.53827 15162 ft 388 kts 78°
2026-05-06 04:06 39.92257 -74.50437 14666 ft 385 kts 78°
2026-05-06 04:06 39.92916 -74.47080 14199 ft 381 kts 78°
2026-05-06 04:06 39.93578 -74.43752 13746 ft 378 kts 78°
2026-05-06 04:07 39.94239 -74.40450 13226 ft 374 kts 78°
2026-05-06 04:07 39.94894 -74.37189 12712 ft 371 kts 78°
2026-05-06 04:07 39.95542 -74.33957 12155 ft 368 kts 78°
2026-05-06 04:07 39.96192 -74.30723 11547 ft 368 kts 78°
2026-05-06 04:08 39.96838 -74.27495 10940 ft 368 kts 78°
2026-05-06 04:08 39.97481 -74.24266 10337 ft 368 kts 79°
2026-05-06 04:08 39.98123 -74.21040 9730 ft 367 kts 79°
2026-05-06 04:08 39.98763 -74.17823 9078 ft 366 kts 78°
2026-05-06 04:09 39.99399 -74.14610 8429 ft 365 kts 78°
2026-05-06 04:09 40.00327 -74.11531 7809 ft 368 kts 60°
2026-05-06 04:09 40.01952 -74.08970 7195 ft 366 kts 39°
2026-05-06 04:09 40.04101 -74.07252 6608 ft 360 kts 17°
2026-05-06 04:10 40.06502 -74.06551 6000 ft 349 kts 357°
2026-05-06 04:10 40.08869 -74.06849 5356 ft 337 kts 339°
2026-05-06 04:10 40.10990 -74.07998 4746 ft 325 kts 321°
2026-05-06 04:10 40.12683 -74.09798 4126 ft 313 kts 305°
2026-05-06 04:11 40.13899 -74.12088 3511 ft 302 kts 289°
2026-05-06 04:11 40.14563 -74.14621 3115 ft 286 kts 274°
2026-05-06 04:11 40.14712 -74.17095 3022 ft 262 kts 261°
2026-05-06 04:11 40.14448 -74.19333 3031 ft 238 kts 250°
2026-05-06 04:12 40.13932 -74.21296 3032 ft 220 kts 246°
2026-05-06 04:12 40.13430 -74.23114 3031 ft 205 kts 246°
2026-05-06 04:12 40.12966 -74.24807 3034 ft 191 kts 246°
2026-05-06 04:12 40.12534 -74.26377 3030 ft 177 kts 246°
2026-05-06 04:13 40.12133 -74.27834 3030 ft 164 kts 244°
2026-05-06 04:13 40.11751 -74.29208 3032 ft 160 kts 244°
2026-05-06 04:13 40.11371 -74.30565 3028 ft 159 kts 244°
2026-05-06 04:13 40.10993 -74.31916 3031 ft 158 kts 244°
2026-05-06 04:14 40.10615 -74.33269 3030 ft 159 kts 244°
2026-05-06 04:14 40.10234 -74.34637 3034 ft 160 kts 245°
2026-05-06 04:14 40.09852 -74.36004 3040 ft 161 kts 245°
2026-05-06 04:14 40.09471 -74.37361 3030 ft 161 kts 245°
2026-05-06 04:15 40.09089 -74.38733 3029 ft 160 kts 245°
2026-05-06 04:15 40.08708 -74.40104 3026 ft 161 kts 245°
2026-05-06 04:15 40.08321 -74.41483 3024 ft 162 kts 244°
2026-05-06 04:15 40.07934 -74.42864 3022 ft 162 kts 244°
2026-05-06 04:16 40.07550 -74.44239 3016 ft 161 kts 244°
2026-05-06 04:16 40.07165 -74.45622 3010 ft 163 kts 244°
2026-05-06 04:16 40.06775 -74.47014 3014 ft 163 kts 245°
2026-05-06 04:16 40.06391 -74.48388 3018 ft 160 kts 244°
2026-05-06 04:17 40.06008 -74.49751 3019 ft 160 kts 245°
2026-05-06 04:17 40.05625 -74.51120 3016 ft 160 kts 245°
2026-05-06 04:17 40.05241 -74.52486 3018 ft 161 kts 245°
2026-05-06 04:17 40.04857 -74.53858 3019 ft 161 kts 245°
2026-05-06 04:18 40.04470 -74.55231 3015 ft 162 kts 245°
2026-05-06 04:18 40.04079 -74.56621 3019 ft 164 kts 245°
2026-05-06 04:18 40.03688 -74.58014 3020 ft 163 kts 244°
2026-05-06 04:18 40.03299 -74.59400 3018 ft 162 kts 244°
2026-05-06 04:19 40.02912 -74.60783 3019 ft 162 kts 244°
2026-05-06 04:19 40.02524 -74.62159 3018 ft 161 kts 244°
2026-05-06 04:19 40.02138 -74.63526 3018 ft 160 kts 244°
2026-05-06 04:19 40.01754 -74.64890 3017 ft 160 kts 245°
2026-05-06 04:20 40.01371 -74.66253 3016 ft 160 kts 245°
2026-05-06 04:20 40.00988 -74.67613 3020 ft 160 kts 245°
2026-05-06 04:20 40.00604 -74.68972 3017 ft 159 kts 245°
2026-05-06 04:20 40.00222 -74.70321 3022 ft 158 kts 245°
2026-05-06 04:21 39.99842 -74.71662 3015 ft 158 kts 244°
2026-05-06 04:21 39.99461 -74.73017 3017 ft 160 kts 244°
2026-05-06 04:21 39.99077 -74.74379 3016 ft 160 kts 244°
2026-05-06 04:21 39.98696 -74.75736 3017 ft 159 kts 244°
2026-05-06 04:22 39.98317 -74.77086 3016 ft 159 kts 244°
2026-05-06 04:22 39.97935 -74.78438 3020 ft 158 kts 244°
2026-05-06 04:22 39.97559 -74.79773 3019 ft 156 kts 244°
2026-05-06 04:23 39.96806 -74.82424 3019 ft 158 kts 245°
2026-05-06 04:23 39.96423 -74.83765 3018 ft 157 kts 244°
2026-05-06 04:23 39.96042 -74.85098 3017 ft 157 kts 244°
2026-05-06 04:23 39.95658 -74.86439 3017 ft 160 kts 244°
2026-05-06 04:24 39.95269 -74.87796 3019 ft 160 kts 244°
2026-05-06 04:24 39.94884 -74.89149 3018 ft 159 kts 244°
2026-05-06 04:24 39.94499 -74.90498 3015 ft 159 kts 244°
2026-05-06 04:24 39.94112 -74.91851 3016 ft 160 kts 244°
2026-05-06 04:25 39.93727 -74.93204 3021 ft 158 kts 244°
2026-05-06 04:25 39.93345 -74.94544 3015 ft 157 kts 244°
2026-05-06 04:25 39.92910 -74.95854 3017 ft 159 kts 244°
2026-05-06 04:25 39.92556 -74.97181 3006 ft 152 kts 247°
2026-05-06 04:26 39.92259 -74.98495 3005 ft 150 kts 248°
2026-05-06 04:26 39.91986 -74.99800 3012 ft 149 kts 249°
2026-05-06 04:26 39.91723 -75.01099 3016 ft 148 kts 249°
2026-05-06 04:26 39.91460 -75.02410 2861 ft 152 kts 249°
2026-05-06 04:27 39.91195 -75.03749 2670 ft 151 kts 249°
2026-05-06 04:27 39.90938 -75.05055 2589 ft 143 kts 249°
2026-05-06 04:27 39.90697 -75.06280 2433 ft 136 kts 248°
2026-05-06 04:27 39.90469 -75.07434 2268 ft 129 kts 245°
2026-05-06 04:28 39.90248 -75.08551 2101 ft 126 kts 245°
2026-05-06 04:28 39.90030 -75.09650 1954 ft 124 kts 244°
2026-05-06 04:28 39.89816 -75.10727 1791 ft 125 kts 245°
2026-05-06 04:28 39.89595 -75.11838 1612 ft 127 kts 245°
2026-05-06 04:29 39.89373 -75.12959 1434 ft 127 kts 245°
2026-05-06 04:29 39.89155 -75.14061 1273 ft 126 kts 246°
2026-05-06 04:29 39.88937 -75.15160 1111 ft 125 kts 244°
2026-05-06 04:29 39.88719 -75.16263 948 ft 127 kts 245°
2026-05-06 04:30 39.88499 -75.17368 792 ft 126 kts 247°
2026-05-06 04:30 39.88283 -75.18458 637 ft 124 kts 246°
2026-05-06 04:30 39.88065 -75.19553 474 ft 125 kts 248°
2026-05-06 04:30 39.87847 -75.20652 325 ft 125 kts 248°
2026-05-06 04:31 39.87627 -75.21756 154 ft 127 kts 249°
2026-05-06 04:31 39.87406 -75.22868 25 ft 122 kts 254°
2026-05-06 04:31 39.87237 -75.23659 18 ft 50 kts 259°
2026-05-06 04:31 39.87232 -75.23791 21 ft 4 kts 291°
2026-05-06 04:32 39.87294 -75.23856 20 ft 15 kts 341°
2026-05-06 04:32 39.87301 -75.23859 20 ft 0 kts 342°
2026-05-06 04:33 39.87302 -75.23860 20 ft 1 kts 342°
2026-05-06 04:33 39.87315 -75.23873 20 ft 3 kts 298°
2026-05-06 04:34 39.87312 -75.23908 21 ft 4 kts 260°
2026-05-06 04:34 39.87306 -75.23949 22 ft 5 kts 258°
2026-05-06 04:34 39.87295 -75.23997 23 ft 6 kts 254°
2026-05-06 04:34 39.87281 -75.24067 24 ft 10 kts 253°
2026-05-06 04:35 39.87231 -75.24138 24 ft 13 kts 184°
2026-05-06 04:35 39.87133 -75.24092 23 ft 17 kts 162°
2026-05-06 04:35 39.87004 -75.24049 22 ft 21 kts 165°
2026-05-06 04:35 39.86880 -75.24092 21 ft 22 kts 255°
2026-05-06 04:36 39.86838 -75.24304 19 ft 26 kts 253°
2026-05-06 04:36 39.86795 -75.24514 17 ft 19 kts 256°
2026-05-06 04:36 39.86764 -75.24671 19 ft 19 kts 256°
2026-05-06 04:36 39.86738 -75.24799 23 ft 11 kts 255°
2026-05-06 04:37 39.86723 -75.24915 21 ft 15 kts 288°
2026-05-06 04:37 39.86825 -75.24931 20 ft 18 kts 28°
2026-05-06 04:37 39.86857 -75.24903 18 ft 0 kts 36°
2026-05-06 04:38 39.86861 -75.24900 18 ft 3 kts 37°
2026-05-06 04:38 39.86886 -75.24866 17 ft 8 kts 57°
2026-05-06 04:38 39.86913 -75.24781 16 ft 12 kts 63°
2026-05-06 04:38 39.86996 -75.24764 17 ft 14 kts 349°
2026-05-06 04:39 39.87085 -75.24827 17 ft 8 kts 342°
2026-05-06 04:39 39.87086 -75.24828 17 ft 0 kts 342°
2026-05-06 04:39 39.87087 -75.24828 17 ft 1 kts 342°
2026-05-06 04:39 39.87132 -75.24842 17 ft 11 kts 346°
2026-05-06 04:40 39.87215 -75.24850 16 ft 13 kts
2026-05-06 04:40 39.87295 -75.24780 16 ft 15 kts 43°
2026-05-06 04:40 39.87303 -75.24770 17 ft 0 kts 37°